Weather Roundup
Issued by NWS

Home | Current Version | Previous Version | Text Only | Print | Product List | Glossary On
Versions: 1 2 3 4 5 6 7 8 9 10 11 12 13 14 15 16 17 18 19 20 21 22 23 24 25 26 27 28 29 30 31 32 33 34 35 36 37 38 39 40 41 42 43 44 45 46 47 48 49 50
000
NZUS93 KARX 192259
HRRWXR

CURRENT HOURLY OBSERVATIONS ACROSS
MUCH OF THE UPPER MISSISSIPPI VALLEY
NATIONAL WEATHER SERVICE LA CROSSE WI
600 PM CDT SAT APR 19 2014


...SOUTHEAST MINNESOTA...


CITY           SKY/WX    TMP DP  RH WIND       PRES   REMARKS
ROCHESTER      CLOUDY    69  45  41 S20G31    30.02F
ROCHESTER/MAYO MOCLDY    69  38  31 SE21G31   30.01F
WINONA           N/A    N/A N/A N/A MISG        N/A
AUSTIN         PTSUNNY   72  39  30 S14G22    30.01S
ALBERT LEA     PTSUNNY   72  43  35 S16G23    29.98F
DODGE CENTER   PTSUNNY   72  39  30 S22G28    30.00F
PRESTON        PTSUNNY   70  42  36 S18G24    30.06S
OWATONNA       CLOUDY    72  46  40 S10G20    29.97F
FARIBAULT      CLOUDY    70  43  37 S5        29.98S
$$

...ELSEWHERE IN MINNESOTA...


CITY           SKY/WX    TMP DP  RH WIND       PRES   REMARKS
MINNEAPOLIS    LGT RAIN  61  50  67 SE6       29.99S
INTNL FALLS    SUNNY     61  30  31 SW17G33   29.84S
DULUTH         MOSUNNY   44  32  62 S7        29.99S
RED WING       CLOUDY    70  41  35 S9G20     29.98S
REDWOOD FALLS  CLOUDY    62  45  53 NW9       29.99R
MANKATO        CLOUDY    64  52  63 W7        29.97S
WORTHINGTON    CLOUDY    68  43  40 NW9       30.01R
FAIRMONT       CLOUDY    72  45  37 SW6       29.99S
$$

...SOUTHWEST WISCONSIN...


CITY           SKY/WX    TMP DP  RH WIND       PRES   REMARKS
LA CROSSE      PTSUNNY   70  37  29 S15       30.07F
PRAIRIE DU CHI PTSUNNY   71  35  26 S10G21    30.10S
BOSCOBEL       PTSUNNY   70  34  26 S9G18     30.12F
LONE ROCK      NOT AVBL
PLATTEVILLE    PTSUNNY   68  35  29 SE17G24   30.15F
FORT MC COY    PTSUNNY   69  35  28 S13G18    30.10F
VIROQUA        FAIR      65  37  34 S18       30.11F
WIS DELLS      MOSUNNY   66  35  31 S14G20    30.15S
$$

...ELSEWHERE IN WISCONSIN...


CITY           SKY/WX    TMP DP  RH WIND       PRES   REMARKS
MILWAUKEE      PTSUNNY   50  36  58 SE8       30.26S
MADISON        PTSUNNY   66  35  31 S14       30.17F
GREEN BAY      MOSUNNY   52  36  54 SE15      30.22F
EAU CLAIRE     NOT AVBL
BLACK RVR FLS  CLOUDY    68  34  28 S12       30.09S
MEDFORD        CLOUDY    57  40  53 S14G23    30.08S
WAUSAU         MOSUNNY   61  35  37 S16       30.09F
WIS RAPIDS     MOSUNNY   65  35  33 S13G20    30.13F
MARSHFIELD     PTSUNNY   63  39  41 S14       30.09F
RICE LAKE      LGT RAIN  50  45  81 SE8       30.06S
$$

...NORTHEAST IOWA...


CITY           SKY/WX    TMP DP  RH WIND       PRES   REMARKS
WATERLOO       PTSUNNY   74  43  32 S20G26    30.05S
DUBUQUE        PTSUNNY   69  36  29 S17       30.13F
DECORAH        PTSUNNY   70  39  32 S14G21    30.08R
MASON CITY     PTSUNNY   74  44  34 S21       30.02S
CHARLES CITY   CLOUDY    70  45  40 S21       30.05F
OELWEIN        PTSUNNY  N/A N/A N/A S25       30.08F
$$

...ELSEWHERE IN IOWA...


CITY           SKY/WX    TMP DP  RH WIND       PRES   REMARKS
DES MOINES     PTSUNNY   76  43  30 S18       30.04S
IOWA CITY      PTSUNNY   73  42  32 S18G24    30.12S
FORT DODGE     CLOUDY    73  45  35 S18G25    30.01S
MARSHALLTOWN   PTSUNNY   73  43  33 S18G30    30.04S
CEDAR RAPIDS   PTSUNNY   71  39  31 S16       30.09F
$$

...NORTHERN ILLINOIS...


CITY           SKY/WX    TMP DP  RH WIND       PRES   REMARKS
CHICAGO-OHARE  CLOUDY    63  36  36 E10       30.22F
DUPAGE         PTSUNNY   67  34  29 S12       30.21F
CHICAGO-MIDWAY CLOUDY    61  38  42 E13       30.23F
MOLINE         PTSUNNY   72  32  23 S14       30.13F
ROCKFORD       CLOUDY    68  32  26 S20       30.20F
STERLING       MOSUNNY   72  32  23 S9G17     30.16F
PEORIA         PTSUNNY   71  34  25 SE10      30.18F
$$

NOTE: "FAIR" INDICATES FEW OR NO CLOUDS BELOW 12,000 FEET WITH NO
SIGNIFICANT WEATHER AND/OR OBSTRUCTIONS TO VISIBILITY. WIND
SPEEDS ARE IN MILES-PER-HOUR.



USA.gov is the U.S. government's official web portal to all federal, state and local government web resources and services.